DW2607 Weather Reports


time (UTC)temp
C
wind
direction
speed
KPH
gust
KPH
rain 1hr
cm
rain 24hr
cm
rain mn
cm
humidity
%
barometer
mb
20260504002518 26 23 3.2 16.1 0.00 0.00 0.00 34 1008.7
20260504001518 25 0 6.4 14.5 0.00 0.00 0.00 35 1008.7
20260504000541 25 0 4.8 11.3 0.00 0.00 0.00 35 1008.8
20260503235519 25 23 3.2 11.3 0.00 0.00 0.00 36 1008.9
20260503234518 25 338 1.6 8.0 0.00 0.00 0.00 37 1008.9
20260503233559 25 23 3.2 9.7 0.00 0.00 0.00 37 1009.0
20260503232540 25 0 3.2 9.7 0.00 0.00 0.00 36 1009.2
20260503231520 25 0 3.2 12.9 0.00 0.00 0.00 37 1009.3
20260503230518 25 0 4.8 14.5 0.00 0.00 0.00 37 1009.5
20260503225519 25 0 3.2 12.9 0.00 0.00 0.00 37 1009.6
20260503224518 25 0 6.4 12.9 0.00 0.00 0.00 36 1009.7
20260503223558 25 0 6.4 16.1 0.00 0.00 0.00 37 1009.9
20260503222518 25 23 6.4 14.5 0.00 0.00 0.00 37 1009.9
20260503221519 25 113 1.6 8.0 0.00 0.00 0.00 38 1010.1
20260503220518 25 0 4.8 16.1 0.00 0.00 0.00 37 1010.1
20260503215518 25 23 4.8 12.9 0.00 0.00 0.00 37 1010.3
20260503214521 25 23 4.8 11.3 0.00 0.00 0.00 37 1010.3
20260503213518 25 45 4.8 14.5 0.00 0.00 0.00 37 1010.5
20260503212518 25 113 1.6 6.4 0.00 0.00 0.00 38 1010.6
20260503211538 25 23 3.2 6.4 0.00 0.00 0.00 38 1010.6
20260503210518 25 0 4.8 14.5 0.00 0.00 0.00 39 1010.7
20260503205518 25 113 3.2 12.9 0.00 0.00 0.00 38 1010.8
20260503204518 24 0 4.8 17.7 0.00 0.00 0.00 40 1010.9
20260503203518 25 0 6.4 14.5 0.00 0.00 0.00 40 1011.1
20260503202518 25 0 6.4 20.9 0.00 0.00 0.00 40 1011.2
20260503201517 25 0 1.6 6.4 0.00 0.00 0.00 44 1011.3
20260503200518 23 0 4.8 14.5 0.00 0.00 0.00 45 1011.4
20260503195517 23 45 3.2 8.0 0.00 0.00 0.00 44 1011.5
20260503194518 23 0 4.8 12.9 0.00 0.00 0.00 44 1011.6
20260503193518 24 68 3.2 8.0 0.00 0.00 0.00 42 1011.8
20260503192518 24 113 3.2 16.1 0.00 0.00 0.00 43 1011.9
20260503191519 23 0 3.2 12.9 0.00 0.00 0.00 45 1011.9
20260503190517 23 23 4.8 12.9 0.00 0.00 0.00 45 1012.0
20260503185517 23 0 6.4 16.1 0.00 0.00 0.00 45 1012.1
20260503184519 23 0 3.2 8.0 0.00 0.00 0.00 47 1012.2
20260503183518 23 23 3.2 8.0 0.00 0.00 0.00 46 1012.3
20260503182518 23 0 3.2 11.3 0.00 0.00 0.00 46 1012.3
20260503181517 23 135 4.8 11.3 0.00 0.00 0.00 47 1012.4
20260503180517 23 113 1.6 12.9 0.00 0.00 0.00 48 1012.4
20260503175519 22 23 4.8 12.9 0.00 0.00 0.00 49 1012.5
20260503174544 22 23 3.2 11.3 0.00 0.00 0.00 49 1012.6
20260503173519 22 0 6.4 17.7 0.00 0.00 0.00 49 1012.7
20260503172603 21 0 3.2 11.3 0.00 0.00 0.00 50 1012.6
20260503171517 21 0 4.8 16.1 0.00 0.00 0.00 51 1012.6
20260503170522 21 0 4.8 17.7 0.00 0.00 0.00 52 1012.7
20260503150522 17 0 3.2 14.5 0.00 0.00 0.00 58 1013.0
20260503130519 15 0.0 3.2 0.00 0.00 0.00 62 1012.4
20260503110518 14 0.0 3.2 0.00 0.00 0.00 65 1012.8
20260503081518 16 0.0 3.2 0.00 0.00 0.00 55 1013.0
20260503080516 16 0.0 0.0 0.00 0.00 0.00 56 1013.1
20260503072536 16 0.0 0.0 0.00 0.00 0.00 56 1013.0
20260503071537 17 0.0 0.0 0.00 0.00 0.00 54 1013.0
20260503070516 17 0.0 3.2 0.00 0.00 0.00 53 1012.9
20260503054542 18 0.0 1.6 0.00 0.00 0.00 49 1012.6
20260503053516 17 0.0 3.2 0.00 0.00 0.00 50 1012.7
20260503052517 18 0.0 4.8 0.00 0.00 0.00 48 1012.7
20260503051516 18 0.0 3.2 0.00 0.00 0.00 46 1012.6
20260503050516 19 0.0 3.2 0.00 0.00 0.00 45 1012.5
20260503045517 20 0 1.6 6.4 0.00 0.00 0.00 44 1012.5
20260503044518 19 0.0 3.2 0.00 0.00 0.00 46 1012.4
20260503043516 19 0.0 3.2 0.00 0.00 0.00 47 1012.3
20260503042537 19 0.0 3.2 0.00 0.00 0.00 45 1012.2
20260503041516 20 0.0 3.2 0.00 0.00 0.00 45 1012.1
20260503040518 20 113 1.6 8.0 0.00 0.00 0.00 44 1011.9
20260503035520 20 0.0 3.2 0.00 0.00 0.00 44 1011.8
20260503034520 20 23 1.6 8.0 0.00 0.00 0.00 44 1011.7
20260503033519 20 0.0 3.2 0.00 0.00 0.00 44 1011.6
20260503032540 20 45 1.6 8.0 0.00 0.00 0.00 44 1011.5
20260503031518 20 68 1.6 4.8 0.00 0.00 0.00 44 1011.5
20260503030540 21 0 1.6 6.4 0.00 0.00 0.00 44 1011.4
20260503025520 21 0 1.6 6.4 0.00 0.00 0.00 44 1011.4
20260503024520 21 0 1.6 8.0 0.00 0.00 0.00 42 1011.3
20260503023519 21 0 3.2 8.0 0.00 0.00 0.00 41 1011.3
20260503022520 21 0 3.2 9.7 0.00 0.00 0.00 41 1011.3
20260503021518 22 0 1.6 12.9 0.00 0.00 0.00 41 1011.3
20260503020518 22 0 3.2 12.9 0.00 0.00 0.00 41 1011.4
20260503015518 22 0 1.6 8.0 0.00 0.00 0.00 42 1011.4
20260503014520 22 0 4.8 19.3 0.00 0.00 0.00 42 1011.5
20260503013518 22 23 4.8 16.1 0.00 0.00 0.00 43 1011.6
20260503012518 22 0 4.8 12.9 0.00 0.00 0.00 43 1011.5
20260503011540 22 0 4.8 12.9 0.00 0.00 0.00 42 1011.5
20260503010518 23 0 8.0 20.9 0.00 0.00 0.00 42 1011.5
20260503005519 23 0 4.8 12.9 0.00 0.00 0.00 42 1011.6
20260503004540 23 0 3.2 12.9 0.00 0.00 0.00 42 1011.6
20260503003518 23 0 3.2 11.3 0.00 0.00 0.00 42 1011.7